Volver al catálogo

HAWK-3B

ActivoCienciaPO
NORAD 48931·PAYLOAD·🇺🇸 United States

Lanzado Jun 30, 2021 desde Cape Canaveral Space Force Station

Loading…

Próximos Pases (próximas 24 horas)

TLE

ActualizadoSource: Space-Track

Época: Sep 14, 2026, 08:47 UTC

1 48931U 21059BE  26257.36647962  .00051561  00000-0  31252-3 0  9991
2 48931  97.6553 103.0090 0003349   9.8927 350.2404 15.77414495291871

Sigue HAWK-3B en tiempo real con AllMySat

Download on the App Store